Location: Young's Pond
(41.2695°N, 72.7766°W)
Time: 06:59:35
(UTC-04:00)

CZ-4B R/B - Visible Passes

Search period start: 26 May 2017 00:00
Search period end: 05 June 2017 00:00
Orbit: 402 x 491 km, 97.5° (Epoch: 25 May)

Date Brightness Start Highest point End Pass type
(mag) Time Alt. Az. Time Alt. Az. Time Alt. Az.
26 May 4.3 00:22:12 12° NE 00:22:12 12° NE 00:22:47 10° NNE visible
26 May 4.2 01:55:47 11° NW 01:55:47 11° NW 01:55:59 10° NW visible
27 May 3.8 01:19:30 20° NNW 01:19:30 20° NNW 01:20:38 10° NNW visible
28 May 3.9 00:43:13 18° NNE 00:43:13 18° NNE 00:44:26 10° NNE visible
29 May 3.9 01:40:31 16° NW 01:40:31 16° NW 01:41:23 10° NNW visible
30 May 3.7 01:04:14 23° N 01:04:14 23° N 01:05:38 10° N visible
31 May 4.0 00:27:57 15° NE 00:27:57 15° NE 00:29:01 10° NNE visible
31 May 4.1 02:01:32 11° NW 02:01:32 11° NW 02:01:48 10° NW visible
01 Jun 3.6 01:25:14 23° NNW 01:25:14 23° NNW 01:26:34 10° NNW visible
02 Jun 3.6 00:48:57 22° NNE 00:48:57 22° NNE 00:50:28 10° N visible
03 Jun 4.3 00:12:39 11° NE 00:12:39 11° NE 00:13:03 10° NE visible
03 Jun 3.7 01:46:13 17° NW 01:46:13 17° NW 01:47:13 10° NNW visible
04 Jun 3.4 01:09:55 27° N 01:09:55 27° N 01:11:34 10° N visible
